User: anonymous   Login
Location: Unspecified
(0.0000°N, 0.0000°E)
Time: 06:15:54
(UTC+00:00)
Language:

Oscar 11 - Orbit

View from above orbital plane
View from above orbital plane
View from above satellite
View from above satellite

Ground track
Ground track

The orbit data is extracted from the following two-line orbital elements,

1 14781U 84021B   17119.71908099 +.00000141 +00000-0 +23694-4 0  9992
2 14781 097.7027 167.2054 0008574 009.1480 350.9888 14.82886671762160
Epoch (UTC): 29 April 2017 17:15:28
Eccentricity: 0.0008574
inclination: 97.7027°
perigee height: 614 km
apogee height: 626 km
right ascension of ascending node: 167.2054°
argument of perigee: 9.1480°
revolutions per day: 14.82886671
mean anomaly at epoch: 350.9888°
orbit number at epoch: 76216

The dashed part of the orbit path shows where the satellite is in the earth's shadow,  

DLR